Location: San Gennaro Vesuviano
(40.8833°N, 14.5333°E)
Time: 21:56:55
(UTC+00:00)

Resurs 1-3 - Pass Details

Date: 22 April 2021
Orbit: 629 x 632 km, 97.9° (Epoch: 10 May)

Event Time Altitude Azimuth Distance (km) Brightness Sun altitude
Exits shadow 19:09:14 18° 157° (SSE) 1,563 5.1 -14.6°
Maximum altitude 19:12:29 73° 75° (ENE) 665 3.5 -15.1°
Drops below altitude 10° 19:16:52 10° 352° (N) 2,019 6.8 -15.8°
Sets 19:19:05 0° 350° (N) 2,931 7.7 -16.2°
